Weather History for Rifle, CO

Change the Weather History Date:

Saturday, February 15, 2014

  Actual Average Record
Temperature  
Mean Temperature 38 °F 31 °F  
Max Temperature 44 °F 42 °F 61 °F (1945)
Min Temperature 31 °F 19 °F -10 °F (1933)
Degree Days  
Heating Degree Days 27 34  
Month to date heating degree days 567 546  
Since 1 July heating degree days 4858 4581  
Cooling Degree Days 0 0  
Month to date cooling degree days 0 0  
Year to date cooling degree days 0 0  
Moisture  
Dew Point 30 °F    
Average Humidity 80    
Maximum Humidity 92    
Minimum Humidity 67    
Precipitation  
Precipitation 0.00 in 0.03 in 0.30 in (1968)
Month to date precipitation 0.30 0.38  
Year to date precipitation 1.29 1.19  
Sea Level Pressure  
Sea Level Pressure 30.09 in    
Wind  
Wind Speed 2 mph (SE)    
Max Wind Speed 8 mph    
Max Gust Speed 9 mph    
Visibility 10 miles    
Events      
T = Trace of Precipitation, MM = Missing Value Source: NWS Daily Summary

Daily Weather History Graph

Daily Weather History Graph

Search for Another Location

Airport:

Trip Planner

Search our weather history database for the weather conditions in past years. The results will help you decide how hot, cold, wet, or windy it might be!

Date:

Astronomy

Feb. 15, 2014 Rise Set
Actual Time 7:02 AM MST 5:47 PM MST
Civil Twilight 6:35 AM MST 6:15 PM MST
Nautical Twilight 6:03 AM MST 6:46 PM MST
Astronomical Twilight 5:32 AM MST 7:17 PM MST
Moon 6:50 PM MST (2/15) 7:03 AM MST (2/15)
Length of Visible Light 11h 39m
Length of Day
10h 44m
Waxing Gibbous, 99% of the Moon is Illuminated
Feb 15
Waxing Gibbous
Feb 22
Last Quarter
Mar 1
New
Mar 8
First Quarter
Mar 16
Full

Hourly Weather History & Observations

Time (MST) Temp. Windchill Dew Point Humidity Pressure Visibility Wind Dir Wind Speed Gust Speed Precip Events Conditions
12:53 AM 34.0 °F 28.8 °F 28.9 °F 82% 30.04 in 10.0 mi SSE 5.8 mph - N/A   Clear
1:53 AM 33.1 °F - 28.9 °F 85% 30.05 in 10.0 mi Calm Calm - N/A   Clear
2:53 AM 32.0 °F 26.4 °F 28.0 °F 85% 30.04 in 10.0 mi SE 5.8 mph - N/A   Clear
3:53 AM 32.0 °F - 28.9 °F 88% 30.04 in 10.0 mi Calm Calm - N/A   Clear
4:53 AM 33.1 °F - 28.9 °F 85% 30.03 in 10.0 mi Calm Calm - N/A   Clear
5:53 AM 30.9 °F - 28.0 °F 89% 30.06 in 10.0 mi Calm Calm - N/A   Clear
6:53 AM 30.9 °F - 28.0 °F 89% 30.07 in 10.0 mi Calm Calm - N/A   Clear
7:53 AM 32.0 °F - 28.9 °F 88% 30.08 in 10.0 mi Calm Calm - N/A   Clear
8:53 AM 33.1 °F - 30.0 °F 89% 30.10 in 10.0 mi Calm Calm - N/A   Clear
9:53 AM 34.0 °F - 30.9 °F 89% 30.11 in 10.0 mi Calm Calm - N/A   Clear
10:53 AM 37.0 °F - 30.9 °F 79% 30.13 in 10.0 mi Calm Calm - N/A   Clear
11:53 AM 39.0 °F - 32.0 °F 76% 30.12 in 10.0 mi Calm Calm - N/A   Partly Cloudy
12:53 PM 41.0 °F - 32.0 °F 70% 30.09 in 10.0 mi Calm Calm - N/A   Mostly Cloudy
1:53 PM 43.0 °F - 32.0 °F 65% 30.08 in 10.0 mi Calm Calm - N/A   Clear
2:53 PM 42.1 °F 40.2 °F 33.1 °F 70% 30.10 in 10.0 mi South 3.5 mph - N/A   Clear
3:53 PM 42.1 °F 40.2 °F 33.1 °F 70% 30.09 in 10.0 mi East 3.5 mph - N/A   Clear
4:53 PM 42.1 °F 40.2 °F 32.0 °F 67% 30.09 in 10.0 mi SSW 3.5 mph - N/A   Scattered Clouds
5:53 PM 39.0 °F 35.7 °F 30.9 °F 73% 30.11 in 10.0 mi ESE 4.6 mph - N/A   Clear
6:53 PM 37.9 °F 34.4 °F 30.9 °F 76% 30.12 in 10.0 mi SE 4.6 mph - N/A   Clear
7:53 PM 37.0 °F 33.3 °F 30.9 °F 79% 30.12 in 10.0 mi East 4.6 mph - N/A   Mostly Cloudy
8:53 PM 36.0 °F - 30.9 °F 82% 30.12 in 10.0 mi Calm Calm - N/A   Clear
9:53 PM 36.0 °F - 30.0 °F 79% 30.11 in 10.0 mi Calm Calm - N/A   Clear
10:53 PM 34.0 °F 31.0 °F 30.0 °F 85% 30.09 in 10.0 mi East 3.5 mph - N/A   Clear
11:53 PM 35.1 °F - 30.0 °F 82% 30.06 in 10.0 mi Calm Calm - N/A   Clear